TimeCST,TemperatureF,Dew PointF,Humidity,Sea Level PressureIn,VisibilityMPH,Wind Direction,Wind SpeedMPH,Gust SpeedMPH,PrecipitationIn,Events,Conditions,WindDirDegrees,DateUTC
12:13 AM,24.8,21.2,86,30.09,5.0,Calm,Calm,-,N/A,,Clear,0,2012-11-19 06:13:00
12:33 AM,24.8,21.2,86,30.08,4.0,Calm,Calm,-,N/A,,Clear,0,2012-11-19 06:33:00
12:53 AM,24.8,21.2,86,30.08,5.0,Calm,Calm,-,N/A,,Clear,0,2012-11-19 06:53:00
1:13 AM,24.8,21.2,86,30.07,5.0,Calm,Calm,-,N/A,,Clear,0,2012-11-19 07:13:00
1:33 AM,24.8,21.2,86,30.07,5.0,Calm,Calm,-,N/A,,Clear,0,2012-11-19 07:33:00
1:53 AM,24.8,21.2,86,30.07,7.0,Calm,Calm,-,N/A,,Clear,0,2012-11-19 07:53:00
2:13 AM,24.8,21.2,86,30.06,5.0,Calm,Calm,-,N/A,,Clear,0,2012-11-19 08:13:00
2:33 AM,24.8,21.2,86,30.06,5.0,Calm,Calm,-,N/A,,Clear,0,2012-11-19 08:33:00
2:53 AM,24.8,21.2,86,30.06,5.0,Calm,Calm,-,N/A,,Clear,0,2012-11-19 08:53:00
3:13 AM,24.8,21.2,86,30.06,5.0,Calm,Calm,-,N/A,,Clear,0,2012-11-19 09:13:00
3:33 AM,24.8,21.2,86,30.06,7.0,Calm,Calm,-,N/A,,Mostly Cloudy,0,2012-11-19 09:33:00
3:53 AM,26.6,24.8,93,30.06,7.0,Calm,Calm,-,N/A,,Overcast,0,2012-11-19 09:53:00
4:14 AM,26.6,24.8,93,30.05,7.0,Calm,Calm,-,N/A,,Mostly Cloudy,0,2012-11-19 10:14:00
4:33 AM,26.6,24.8,93,30.05,7.0,Calm,Calm,-,N/A,,Scattered Clouds,0,2012-11-19 10:33:00
4:53 AM,26.6,24.8,93,30.05,7.0,Calm,Calm,-,N/A,,Scattered Clouds,0,2012-11-19 10:53:00
5:13 AM,26.6,24.8,93,30.04,10.0,Calm,Calm,-,N/A,,Clear,0,2012-11-19 11:13:00
5:33 AM,28.4,24.8,86,30.04,7.0,Calm,Calm,-,N/A,,Clear,0,2012-11-19 11:33:00
5:53 AM,28.4,24.8,86,30.05,5.0,Calm,Calm,-,N/A,,Clear,0,2012-11-19 11:53:00
6:13 AM,26.6,24.8,93,30.04,7.0,Calm,Calm,-,N/A,,Clear,0,2012-11-19 12:13:00
6:33 AM,26.6,24.8,93,30.04,5.0,Calm,Calm,-,N/A,,Clear,0,2012-11-19 12:33:00
6:53 AM,26.6,24.8,93,30.04,4.0,Calm,Calm,-,N/A,,Scattered Clouds,0,2012-11-19 12:53:00
7:33 AM,26.6,24.8,93,30.05,3.0,Calm,Calm,-,N/A,,Clear,0,2012-11-19 13:33:00
7:53 AM,26.6,24.8,93,30.05,3.0,Calm,Calm,-,N/A,,Clear,0,2012-11-19 13:53:00
8:13 AM,28.4,26.6,93,30.05,5.0,Calm,Calm,-,N/A,,Clear,0,2012-11-19 14:13:00
8:33 AM,30.2,26.6,86,30.05,5.0,Calm,Calm,-,N/A,,Scattered Clouds,0,2012-11-19 14:33:00
8:53 AM,30.2,28.4,93,30.05,7.0,Calm,Calm,-,N/A,,Mostly Cloudy,0,2012-11-19 14:53:00
9:13 AM,32.0,28.4,87,30.05,7.0,Calm,Calm,-,N/A,,Mostly Cloudy,0,2012-11-19 15:13:00
9:53 AM,35.6,32.0,87,30.05,7.0,Calm,Calm,-,N/A,,Scattered Clouds,0,2012-11-19 15:53:00
10:13 AM,37.4,35.6,93,30.05,10.0,Calm,Calm,-,N/A,,Scattered Clouds,0,2012-11-19 16:13:00
10:34 AM,41.0,37.4,87,30.05,10.0,Calm,Calm,-,N/A,,Scattered Clouds,0,2012-11-19 16:34:00
10:53 AM,44.6,35.6,71,30.04,10.0,Calm,Calm,-,N/A,,Scattered Clouds,0,2012-11-19 16:53:00
11:13 AM,44.6,35.6,71,30.03,10.0,Calm,Calm,-,N/A,,Scattered Clouds,0,2012-11-19 17:13:00
11:33 AM,42.8,35.6,76,30.03,10.0,Calm,Calm,-,N/A,,Mostly Cloudy,0,2012-11-19 17:33:00
11:53 AM,44.6,35.6,71,30.02,10.0,Calm,Calm,-,N/A,,Mostly Cloudy,0,2012-11-19 17:53:00
12:13 PM,44.6,35.6,71,30.02,10.0,Calm,Calm,-,N/A,Rain,Light Rain,0,2012-11-19 18:13:00
12:33 PM,42.8,33.8,70,30.02,2.5,Calm,Calm,-,N/A,Rain,Heavy Rain,0,2012-11-19 18:33:00
12:53 PM,41.0,37.4,87,30.01,7.0,Calm,Calm,-,0.02,Rain,Light Rain,0,2012-11-19 18:53:00
1:13 PM,42.8,37.4,81,30.00,7.0,Calm,Calm,-,0.03,,Mostly Cloudy,0,2012-11-19 19:13:00
1:33 PM,42.8,37.4,81,30.00,7.0,Calm,Calm,-,0.03,,Mostly Cloudy,0,2012-11-19 19:33:00
1:53 PM,42.8,37.4,81,30.00,7.0,Calm,Calm,-,N/A,,Mostly Cloudy,0,2012-11-19 19:53:00
2:13 PM,42.8,37.4,81,29.99,7.0,Calm,Calm,-,N/A,,Mostly Cloudy,0,2012-11-19 20:13:00
2:33 PM,42.8,37.4,81,30.00,5.0,Calm,Calm,-,N/A,,Mostly Cloudy,0,2012-11-19 20:33:00
2:53 PM,42.8,39.2,87,30.00,5.0,Calm,Calm,-,N/A,,Scattered Clouds,0,2012-11-19 20:53:00
3:13 PM,42.8,39.2,87,30.00,5.0,Calm,Calm,-,N/A,,Mostly Cloudy,0,2012-11-19 21:13:00
3:33 PM,42.8,39.2,87,30.00,4.0,Calm,Calm,-,N/A,,Mostly Cloudy,0,2012-11-19 21:33:00
3:53 PM,42.8,37.4,81,30.00,5.0,Calm,Calm,-,N/A,,Mostly Cloudy,0,2012-11-19 21:53:00
4:13 PM,42.8,37.4,81,30.00,5.0,Calm,Calm,-,N/A,,Scattered Clouds,0,2012-11-19 22:13:00
4:33 PM,41.0,37.4,87,30.00,5.0,Calm,Calm,-,N/A,,Scattered Clouds,0,2012-11-19 22:33:00
4:53 PM,41.0,37.4,87,30.01,7.0,Calm,Calm,-,N/A,,Mostly Cloudy,0,2012-11-19 22:53:00
5:14 PM,39.2,35.6,87,30.01,1.2,Calm,Calm,-,N/A,,Mostly Cloudy,0,2012-11-19 23:14:00
5:33 PM,37.4,35.6,93,30.01,3.0,Calm,Calm,-,N/A,,Scattered Clouds,0,2012-11-19 23:33:00
5:53 PM,37.4,33.8,87,30.01,3.0,Calm,Calm,-,N/A,,Clear,0,2012-11-19 23:53:00
6:13 PM,35.6,32.0,87,30.01,1.5,Calm,Calm,-,N/A,,Mist,0,2012-11-20 00:13:00
6:33 PM,33.8,30.2,87,30.01,1.0,Calm,Calm,-,N/A,,Mist,0,2012-11-20 00:33:00
6:53 PM,33.8,30.2,87,30.01,1.8,Calm,Calm,-,N/A,,Mist,0,2012-11-20 00:53:00
7:13 PM,32.0,28.4,87,30.01,1.8,Calm,Calm,-,N/A,,Mist,0,2012-11-20 01:13:00
7:33 PM,30.2,28.4,93,30.01,1.2,Calm,Calm,-,N/A,,Mist,0,2012-11-20 01:33:00
7:53 PM,30.2,26.6,86,30.01,1.8,Calm,Calm,-,N/A,,Mist,0,2012-11-20 01:53:00
8:13 PM,30.2,26.6,86,30.01,1.8,Calm,Calm,-,N/A,,Mist,0,2012-11-20 02:13:00
8:33 PM,28.4,26.6,93,30.00,2.0,Calm,Calm,-,N/A,,Clear,0,2012-11-20 02:33:00
8:53 PM,28.4,26.6,93,30.00,2.5,Calm,Calm,-,N/A,,Clear,0,2012-11-20 02:53:00
9:13 PM,28.4,26.6,93,29.99,1.8,Calm,Calm,-,N/A,,Mist,0,2012-11-20 03:13:00
9:33 PM,28.4,26.6,93,30.00,2.0,Calm,Calm,-,N/A,,Clear,0,2012-11-20 03:33:00
9:53 PM,28.4,26.6,93,30.01,2.5,Calm,Calm,-,N/A,,Clear,0,2012-11-20 03:53:00
10:13 PM,28.4,26.6,93,30.01,3.0,Calm,Calm,-,N/A,,Clear,0,2012-11-20 04:13:00
10:33 PM,30.2,28.4,93,30.01,10.0,Calm,Calm,-,N/A,,Clear,0,2012-11-20 04:33:00
10:53 PM,32.0,30.2,93,30.01,10.0,Calm,Calm,-,N/A,,Clear,0,2012-11-20 04:53:00
11:13 PM,33.8,32.0,93,30.02,10.0,NNW,3.5,-,N/A,,Clear,330,2012-11-20 05:13:00
11:33 PM,35.6,33.8,93,30.02,10.0,NNW,3.5,-,N/A,,Clear,330,2012-11-20 05:33:00
11:53 PM,35.6,32.0,87,30.02,7.0,Calm,Calm,-,N/A,,Clear,0,2012-11-20 05:53:00